This is the latest recevied weather packets stored in our database for station/object SR8WXB-1. If no packets are shown the sender has not sent any weather packets the latest 1 day(s).
| Time | Temp. | Humidity | Pressure | Rain* | Wind** | Luminosity | Snow |
|---|---|---|---|---|---|---|---|
| 1778018375 | 16.67° C | 100% | 938.7 hPa | - | 4.47 m/s, 234° | - | - |
| 1778018135 | 16.67° C | 100% | 938.7 hPa | - | 4.47 m/s, 232° | - | - |
| 1778017895 | 16.67° C | 100% | 938.7 hPa | - | 4.02 m/s, 232° | - | - |
| 1778017655 | 17.22° C | 100% | 938.8 hPa | - | 4.47 m/s, 230° | - | - |
| 1778017415 | 17.22° C | 100% | 938.8 hPa | - | 4.92 m/s, 228° | - | - |
| 1778017172 | 17.22° C | 100% | 938.8 hPa | - | 4.47 m/s, 228° | - | - |
| 1778016932 | 17.22° C | 100% | 938.8 hPa | - | 4.92 m/s, 227° | - | - |
| 1778016692 | 17.22° C | 100% | 938.8 hPa | - | 5.36 m/s, 228° | - | - |
| 1778016452 | 17.22° C | 100% | 938.8 hPa | - | 4.47 m/s, 232° | - | - |
| 1778016203 | 17.22° C | 100% | 938.8 hPa | - | 5.36 m/s, 233° | - | - |
| 1778015960 | 17.78° C | 100% | 938.8 hPa | - | 5.36 m/s, 236° | - | - |
| 1778015720 | 17.78° C | 100% | 938.9 hPa | - | 6.26 m/s, 235° | - | - |
| 1778015240 | 17.78° C | 100% | 938.9 hPa | - | 5.81 m/s, 236° | - | - |
| 1778015001 | 17.78° C | 100% | 938.9 hPa | - | 6.71 m/s, 236° | - | - |
| 1778014754 | 17.78° C | 100% | 938.9 hPa | - | 6.71 m/s, 235° | - | - |
| 1778014514 | 17.78° C | 100% | 938.9 hPa | - | 6.26 m/s, 236° | - | - |
| 1778014274 | 17.78° C | 100% | 938.9 hPa | - | 6.26 m/s, 235° | - | - |
| 1778014034 | 17.78° C | 100% | 938.9 hPa | - | 6.26 m/s, 235° | - | - |
| 1778013794 | 17.78° C | 100% | 938.9 hPa | - | 6.26 m/s, 237° | - | - |
| 1778013551 | 17.78° C | 100% | 938.9 hPa | - | 6.26 m/s, 235° | - | - |
| 1778013311 | 17.78° C | 100% | 938.9 hPa | - | 6.26 m/s, 235° | - | - |
| 1778013071 | 17.78° C | 100% | 938.9 hPa | - | 5.81 m/s, 235° | - | - |
| 1778012831 | 17.78° C | 100% | 938.9 hPa | - | 7.15 m/s, 237° | - | - |
| 1778012591 | 17.78° C | 100% | 938.9 hPa | - | 6.71 m/s, 236° | - | - |
| 1778012348 | 17.78° C | 100% | 938.9 hPa | - | 6.71 m/s, 237° | - | - |
* Rain since midnight (hover to see other rain measurements)
** Current wind speed in m/s (hover to see current wind gust speed)